Regional Weather Roundup
Issued by NWS

Home | Current Version | Previous Version | Text Only | Print | Product List | Glossary On
Versions: 1 2 3 4 5 6 7 8 9 10 11 12 13 14 15 16 17 18 19 20 21 22 23 24 25 26 27 28 29 30 31 32 33 34 35 36 37 38 39 40 41 42 43 44 45 46 47 48 49 50
000
ASUS43 KBIS 251610
RWRND
NORTH DAKOTA REGIONAL WEATHER ROUNDUP
NATIONAL WEATHER SERVICE EASTERN NORTH DAKOTA/GRAND FORKS ND
1100 AM CDT FRI MAY 25 2018

  NOTE: "FAIR" INDICATES FEW OR NO CLOUDS BELOW 12,000 FEET WITH NO
  SIGNIFICANT WEATHER AND/OR OBSTRUCTIONS TO VISIBILITY.

NDZ001>003-009>011-017-251700-
...NORTHWEST NORTH DAKOTA...

CITY           SKY/WX    TMP DP  RH WIND       PRES   REMARKS
WILLISTON      FAIR      76  52  43 W15       29.75F
MINOT          FAIR      83  52  34 SW17      29.67S
MINOT AFB      FAIR      81  54  39 W18       29.65S
$$

NDZ018>021-031>035-040>046-251700-
...SOUTHWEST NORTH DAKOTA...

CITY           SKY/WX    TMP DP  RH WIND       PRES   REMARKS
BISMARCK       FAIR      81  58  45 SW12      29.76S
DICKINSON      FAIR      79  52  38 W20G25    29.81S
GARRISON         N/A     81  53  37 W14       29.71F
HETTINGER      FAIR      77  54  44 W17       29.86F
$$

NDZ004>008-012>016-024-026-027-054-251700-
...NORTHEAST NORTH DAKOTA...

CITY           SKY/WX    TMP DP  RH WIND       PRES   REMARKS
GRAND FORKS    FAIR      82  61  48 W8        29.65F
GRAND FORKS AF FAIR      83  60  45 W7        29.66F
DEVILS LAKE    FAIR      77  58  51 SW9       29.70S
$$

NDZ022-023-025-028>030-036>039-047>053-251700-
...SOUTHEAST NORTH DAKOTA...

CITY           SKY/WX    TMP DP  RH WIND       PRES   REMARKS
JAMESTOWN      FAIR      82  58  43 W15       29.72F
FARGO          FAIR      85  57  38 W15G22    29.69F
WAHPETON       FAIR      82  52  34 W10G18    29.73F
$$




USA.gov is the U.S. government's official web portal to all federal, state and local government web resources and services.